Tracking 35280 objects as of 7-Sep-2026
HD Live streaming from Space Station
objects crossing your sky now

COSMOS 1814 DEB *

Track COSMOS 1814 DEB * now!
10-day predictions


NORAD ID: 18257
Int'l Code: 1987-006C
Launch date: January 21, 1987
Source: Commonwealth of Independent States (former USSR) (CIS)
Launch site: PLESETSK MISSILE AND SPACE COMPLEX (PKMTR)

Note: This is SATELLITE DEBRIS
Your satellite tracking list
Your tracking list is empty




NASA's NSSDC Master Catalog

Two Line Element Set (TLE):
1 18257U 87006C   26249.80732163  .00001400  00000-0  22841-3 0  9992
2 18257  74.0336 166.7005 0006401 256.3235 103.7225 14.71940212167139
Source of the keplerian elements: AFSPC